Location: Wawayanda State Park
(41.1833°N, 74.4333°W)
Time: 15:12:35
(UTC-04:00)

RESURS DK-1 - Visible Passes

Search period start: 26 March 2015 00:00
Search period end: 05 April 2015 00:00
Orbit: 559 x 566 km, 69.9° (Epoch: 26 March)

Date Brightness Start Highest point End Pass type
(mag) Time Alt. Az. Time Alt. Az. Time Alt. Az.
28 Mar 5.2 22:14:00 10° N 22:14:14 11° N 22:14:14 11° N visible
29 Mar 5.0 22:13:06 10° N 22:13:49 14° N 22:13:49 14° N visible
30 Mar 4.8 22:12:18 10° N 22:13:26 17° N 22:13:26 17° N visible
31 Mar 4.6 22:11:34 10° NNW 22:13:04 21° N 22:13:04 21° N visible
01 Apr 4.3 22:10:53 10° NNW 22:12:45 25° NNW 22:12:45 25° NNW visible
02 Apr 4.6 20:34:35 10° NNE 20:35:39 11° NE 20:36:29 11° ENE visible
02 Apr 4.1 22:10:16 10° NNW 22:12:28 30° NNW 22:12:28 30° NNW visible
03 Apr 4.3 20:33:00 10° NNE 20:35:15 14° NE 20:36:14 13° ENE visible
03 Apr 3.9 22:09:43 10° NNW 22:12:14 34° NW 22:12:14 34° NW visible
04 Apr 4.0 20:31:53 10° N 20:34:48 19° NE 20:36:03 17° ENE visible
04 Apr 3.9 22:09:14 10° NW 22:12:02 33° WNW 22:12:02 33° WNW visible
